Location: �terpigny
(49.8910°N, 2.9249°E)
Time: 02:47:59
(UTC+00:00)

Envisat - Visible Passes

Search period start: 20 January 2022 00:00
Search period end: 30 January 2022 00:00
Orbit: 764 x 766 km, 98.2° (Epoch: 19 January)

Date Brightness Start Highest point End Pass type
(mag) Time Alt. Az. Time Alt. Az. Time Alt. Az.
20 Jan 6.0 03:07:20 10° ENE 03:08:00 10° E 03:08:40 10° E visible
20 Jan 3.2 04:42:52 10° NNE 04:47:58 69° ESE 04:53:02 10° S visible
20 Jan 4.2 06:22:47 10° N 06:26:31 21° WNW 06:30:15 10° WSW visible
21 Jan 4.5 04:06:17 10° NNE 04:10:55 34° E 04:15:32 10° SSE visible
21 Jan 3.4 05:45:18 10° N 05:49:59 38° WNW 05:54:39 10° SW visible
21 Jan 5.8 17:06:05 10° SW 17:09:35 19° W 17:13:08 10° NW visible
22 Jan 5.5 03:30:19 10° NE 03:33:40 17° E 03:37:00 10° SE visible
22 Jan 2.8 05:08:10 10° N 05:13:16 75° WNW 05:18:19 10° SSW visible
22 Jan 4.6 06:48:53 10° NNW 06:51:27 14° NW 06:54:00 10° W visible
23 Jan 3.6 04:31:20 10° NNE 04:36:21 56° E 04:41:20 10° S visible
23 Jan 4.0 06:10:57 10° N 06:15:03 25° WNW 06:19:08 10° WSW visible
23 Jan 6.3 17:33:48 10° W 17:35:15 11° W 17:36:42 10° WNW visible
24 Jan 4.8 03:54:52 10° NE 03:59:14 28° E 04:03:34 10° SSE visible
24 Jan 3.2 05:33:35 10° N 05:38:27 46° WNW 05:43:18 10° SW visible
25 Jan 5.8 03:19:17 10° NE 03:21:55 14° E 03:24:32 10° ESE visible
25 Jan 2.9 04:56:33 10° NNE 05:01:41 90° ESE 05:06:46 10° SSW visible
25 Jan 4.4 06:36:51 10° NNW 06:40:01 17° NW 06:43:10 10° W visible
26 Jan 4.0 04:19:49 10° NNE 04:24:42 45° E 04:29:33 10° S visible
26 Jan 3.7 05:59:09 10° N 06:03:33 30° WNW 06:07:56 10° WSW visible
26 Jan 6.0 17:20:50 10° WSW 17:23:29 14° W 17:26:07 10° NW visible
27 Jan 5.2 03:43:31 10° NE 03:47:32 23° E 03:51:30 10° SE visible
27 Jan 3.0 05:21:55 10° N 05:26:54 57° WNW 05:31:52 10° SSW visible
28 Jan 6.0 03:08:44 10° ENE 03:10:08 11° E 03:11:33 10° E visible
28 Jan 3.1 04:44:57 10° NNE 04:50:04 74° ESE 04:55:09 10° S visible
28 Jan 4.2 06:24:56 10° NNW 06:28:34 20° WNW 06:32:11 10° WSW visible
29 Jan 4.4 04:08:20 10° NNE 04:13:02 36° E 04:17:42 10° SSE visible
29 Jan 3.5 05:47:25 10° N 05:52:03 36° WNW 05:56:39 10° SW visible
29 Jan 5.9 17:08:22 10° SW 17:11:43 18° W 17:15:06 10° NW visible
